This demonstration page uses our WeatherBlox Daily Observations layout. Learn more.

Hourly Observations for September 29, 2020

Temp ( °F °C ) Dew Point ( °F °C ) Humidity (%) Winds ( mph kmh ) Pressure ( in mb ) Visibility ( mi km ) Precip ( " mm )
12:15 am 00:15 Clear 45 7.3 31 -0.4 58 58 W 7 11 30.18 1022 10 16.0934 0 0
12:35 am 00:35 Clear 44 6.9 31 -0.3 60 60 WNW 6 9 30.17 1022 10 16.0934 0 0
12:55 am 00:55 Clear 42 5.8 32 -0.2 66 66 WNW 6 9 30.18 1022 10 16.0934 0 0
1:15 am 01:15 Clear 42 5.5 32 -0.2 67 67 WNW 8 13 30.19 1022 10 16.0934 0 0
1:35 am 01:35 Clear 42 5.5 32 -0.2 67 67 WNW 7 11 30.19 1022 10 16.0934 0 0
1:55 am 01:55 Clear 42 5.5 32 -0.2 67 67 WNW 7 11 30.18 1022 10 16.0934 0 0
2:15 am 02:15 Clear 39 3.9 31 -0.7 72 72 WNW 6 9 30.19 1022 10 16.0934 0 0
2:35 am 02:35 Clear 41 5.2 32 -0.2 68 68 WNW 6 9 30.2 1023 10 16.0934 0 0
2:55 am 02:55 Clear 42 5.6 32 -0.2 67 67 WNW 6 9 30.19 1022 10 16.0934 0 0
3:15 am 03:15 Clear 42 5.5 31 -0.3 67 67 W 7 11 30.18 1022 10 16.0934 0 0
3:35 am 03:35 Clear 42 5.5 31 -0.5 66 66 W 7 11 30.17 1022 10 16.0934 0 0
3:55 am 03:55 Clear 40 4.7 31 -0.5 69 69 W 5 7 30.17 1022 10 16.0934 0 0
4:15 am 04:15 Clear 40 4.7 31 -0.5 69 69 W 5 7 30.16 1021 10 16.0934 0 0
4:35 am 04:35 Clear 40 4.6 30 -1 67 67 W 6 9 30.17 1022 10 16.0934 0 0
4:55 am 04:55 Clear 42 5.4 30 -1 64 64 W 6 9 30.17 1022 10 16.0934 0 0
5:15 am 05:15 Clear 41 5 30 -1.2 65 65 W 6 9 30.17 1022 10 16.0934 0 0
5:35 am 05:35 Clear 40 4.5 30 -1.1 67 67 W 6 9 30.16 1021 10 16.0934 0 0
5:55 am 05:55 Clear 39 4 30 -1.2 69 69 W 7 11 30.16 1021 10 16.0934 0 0
6:15 am 06:15 Clear 40 4.4 30 -1.3 67 67 W 7 11 30.17 1022 10 16.0934 0 0
6:35 am 06:35 Clear 41 5 30 -1.3 64 64 W 7 11 30.17 1022 10 16.0934 0 0
6:55 am 06:55 Clear 41 4.9 29 -1.5 64 64 W 6 9 30.16 1021 10 16.0934 0 0
7:15 am 07:15 Clear 40 4.5 29 -1.5 65 65 W 6 9 30.15 1021 10 16.0934 0 0
7:35 am 07:35 Sunny 40 4.5 30 -1.2 67 67 W 7 11 30.16 1021 10 16.0934 0 0
7:55 am 07:55 Sunny 40 4.4 30 -1 68 68 W 6 9 30.16 1021 10 16.0934 0 0
8:15 am 08:15 Sunny 43 6 31 -0.5 63 63 W 7 11 30.14 1021 10 16.0934 0 0
8:35 am 08:35 Sunny 47 8.2 30 -0.9 53 53 W 8 13 30.12 1020 10 16.0934 0 0
8:55 am 08:55 Sunny 48 9 31 -0.8 51 51 W 7 11 30.11 1020 10 16.0934 0 0
9:15 am 09:15 Sunny 52 10.9 31 -0.5 46 46 W 9 15 30.09 1019 10 16.0934 0 0
9:35 am 09:35 Sunny 55 13 31 -0.4 40 40 W 12 19 30.08 1018 10 16.0934 0 0
9:55 am 09:55 Sunny 58 14.4 31 -0.5 36 36 W 8 13 30.06 1018 10 16.0934 0 0
10:15 am 10:15 Sunny 61 16 31 -0.3 33 33 W 10 17 30.04 1017 10 16.0934 0 0
10:35 am 10:35 Sunny 63 17 31 -0.8 30 30 W 12 19 30.02 1017 10 16.0934 0 0
10:55 am 10:55 Sunny 64 17.8 31 -0.6 29 29 W 9 15 30.02 1016 10 16.0934 0 0
11:15 am 11:15 Sunny 65 18.2 29 -1.4 27 27 W 10 17 30 1016 10 16.0934 0 0
11:35 am 11:35 Sunny 66 18.7 29 -1.7 25 25 W 12 19 30 1016 10 16.0934 0 0
11:55 am 11:55 Sunny 67 19.3 30 -1.3 25 25 WSW 7 11 29.98 1015 10 16.0934 0 0
12:15 pm 12:15 Sunny 69 20.8 29 -1.5 22 22 W 9 15 29.96 1015 10 16.0934 0 0
12:35 pm 12:35 Sunny 72 22 29 -1.8 20 20 WSW 10 17 29.94 1014 10 16.0934 0 0
12:55 pm 12:55 Sunny 74 23.2 28 -2 19 19 W 16 26 29.92 1013 10 16.0934 0 0
1:15 pm 13:15 Sunny 74 23.6 27 -3 17 17 W 7 11 29.92 1013 10 16.0934 0 0
1:35 pm 13:35 Sunny 76 24.3 27 -2.8 16 16 W 12 19 29.9 1013 10 16.0934 0 0
1:55 pm 13:55 Sunny 76 24.6 27 -2.8 16 16 W 12 19 29.89 1012 10 16.0934 0 0
2:15 pm 14:15 Sunny 77 25.2 28 -2.2 16 16 W 14 22 29.89 1012 10 16.0934 0 0
2:35 pm 14:35 Sunny 78 25.8 30 -1.3 17 17 WNW 12 19 29.87 1012 10 16.0934 0 0
2:55 pm 14:55 Sunny 79 26 30 -1.1 17 17 WNW 13 20 29.85 1011 10 16.0934 0 0
3:10 pm 15:10 Sunny 79 26.1 31 -0.6 17 17 WNW 14 22 29.85 1011 10 16.0934 0 0
3:35 pm 15:35 Sunny 80 26.5 32 -0.1 17 17 NW 12 19 29.83 1010 10 16.0934 0 0
3:55 pm 15:55 Sunny 80 26.6 32 0.1 18 18 NW 9 15 29.82 1010 10 16.0934 0 0
4:15 pm 16:15 Sunny 81 27 32 0.1 17 17 WNW 10 17 29.82 1010 10 16.0934 0 0
4:35 pm 16:35 Sunny 81 27 33 0.4 18 18 WNW 9 15 29.81 1010 10 16.0934 0 0
4:55 pm 16:55 Sunny 81 27.2 33 0.8 18 18 WNW 7 11 29.81 1009 10 16.0934 0 0
5:15 pm 17:15 Sunny 82 27.5 35 1.5 19 19 NW 9 15 29.79 1009 10 16.0934 0 0
5:35 pm 17:35 Sunny 82 27.7 36 2.3 19 19 NW 6 9 29.79 1009 10 16.0934 0 0
5:55 pm 17:55 Sunny 82 27.6 37 2.5 20 20 NW 7 11 29.78 1008 10 16.0934 0 0
6:15 pm 18:15 Sunny 81 27.1 37 3 21 21 NW 5 7 29.77 1008 10 16.0934 0 0
6:35 pm 18:35 Sunny 80 26.4 38 3.4 23 23 WNW 5 7 29.78 1008 10 16.0934 0 0
6:55 pm 18:55 Sunny 77 25.1 39 3.7 25 25 Calm 29.79 1009 10 16.0934 0 0
7:15 pm 19:15 Sunny 74 23.4 40 4.3 29 29 W 3 6 29.8 1009 10 16.0934 0 0
7:35 pm 19:35 Clear 71 21.9 39 3.9 31 31 Calm 29.81 1010 10 16.0934 0 0
7:55 pm 19:55 Clear 67 19.2 40 4.2 37 37 Calm 29.83 1010 7 11.26538 0 0
8:15 pm 20:15 Clear 64 17.8 41 4.8 42 42 Calm 29.85 1011 10 16.0934 0 0
8:35 pm 20:35 Clear 61 16.2 42 5.8 50 50 Calm 29.87 1011 10 16.0934 0 0
11:35 pm 23:35 Clear 54 12.4 41 5 61 61 W 3 6 29.89 1012 10 16.0934 0 0
11:55 pm 23:55 Clear 52 11.3 40 4.7 64 64 Calm 29.89 1012 10 16.0934 0 0

Powered by AerisWeather